Lexington, KY

5:51 AM EDT on May 21, 2018 (GMT -0400)
Blue Grass

Weather History for KLEX - April, 2014

Change the Weather History Date:

Saturday, April 26, 2014

  Actual Average Record
Temperature  
Mean Temperature 63 °F 58 °F  
Max Temperature 77 °F 69 °F 88 °F (1935)
Min Temperature 49 °F 48 °F 30 °F (1919)
Degree Days  
Heating Degree Days 2 7  
Month to date heating degree days 200 285  
Since 1 July heating degree days 4759 4461  
Cooling Degree Days 0 1  
Month to date cooling degree days 11 17  
Year to date cooling degree days 11 19  
Growing Degree Days 12 (Base 50)    
Moisture  
Dew Point 43 °F    
Average Humidity 54    
Maximum Humidity 77    
Minimum Humidity 31    
Precipitation  
Precipitation 0.00 in 0.13 in 2.28 in (1912)
Month to date precipitation 2.73 3.06  
Year to date precipitation 12.66 13.53  
Snow  
Snow 0.00 in 0.00 in 0.00 in ()
Month to date snowfall 0.3 0.3  
Since 1 July snowfall 27.1 13.0  
Snow Depth 0.00 in    
Sea Level Pressure  
Sea Level Pressure 29.95 in    
Wind  
Wind Speed 8 mph (SW)    
Max Wind Speed 18 mph    
Max Gust Speed 23 mph    
Visibility 10 miles    
Events      
T = Trace of Precipitation, MM = Missing Value Source: NWS Daily Summary

Daily Weather History Graph

Daily Weather History Graph

Search for Another Location

Airport or City:

Astronomy

Apr. 26, 2014 Rise Set
Actual Time 6:48 AM EDT 8:24 PM EDT
Civil Twilight 6:20 AM EDT 8:52 PM EDT
Nautical Twilight 5:46 AM EDT 9:26 PM EDT
Astronomical Twilight 5:11 AM EDT 10:02 PM EDT
Moon 5:09 AM EDT (4/26) 5:54 PM EDT (4/26)
Length of Visible Light 14h 32m
Length of Day
13h 36m
Waning Crescent, 8% of the Moon is Illuminated
Apr 26
Waning Crescent
Apr 29
New
May 6
First Quarter
May 14
Full
May 21
Last Quarter

Hourly Weather History & Observations

Time (EDT) Temp. Dew Point Humidity Pressure Visibility Wind Dir Wind Speed Gust Speed Precip Events Conditions
12:54 AM 51.8 °F 42.8 °F 71% 29.96 in 10.0 mi SSW 5.8 mph - N/A   Clear
1:54 AM 53.1 °F 41.0 °F 64% 29.95 in 10.0 mi SSW 4.6 mph - N/A   Clear
2:54 AM 48.9 °F 41.0 °F 74% 29.95 in 10.0 mi SSW 8.1 mph - N/A   Clear
3:54 AM 48.9 °F 39.9 °F 71% 29.96 in 10.0 mi SSW 5.8 mph - N/A   Clear
4:54 AM 50.0 °F 39.9 °F 68% 29.95 in 10.0 mi South 5.8 mph - N/A   Clear
5:54 AM 48.9 °F 39.9 °F 71% 29.95 in 10.0 mi South 8.1 mph - N/A   Clear
6:54 AM 48.9 °F 39.9 °F 71% 29.96 in 10.0 mi South 6.9 mph - N/A   Clear
7:54 AM 52.0 °F 43.0 °F 71% 29.97 in 10.0 mi SW 5.8 mph - N/A   Clear
8:54 AM 57.9 °F 44.1 °F 60% 29.98 in 10.0 mi SW 6.9 mph - N/A   Clear
9:54 AM 63.0 °F 45.0 °F 52% 29.98 in 10.0 mi WSW 12.7 mph - N/A   Clear
10:54 AM 68.0 °F 46.0 °F 45% 29.98 in 10.0 mi WSW 12.7 mph - N/A   Clear
11:54 AM 73.0 °F 43.0 °F 34% 29.98 in 10.0 mi SW 15.0 mph 20.7 mph N/A   Clear
12:54 PM 73.9 °F 42.1 °F 32% 29.97 in 10.0 mi SW 12.7 mph - N/A   Clear
1:54 PM 75.9 °F 45.0 °F 33% 29.96 in 10.0 mi WSW 12.7 mph - N/A   Clear
2:54 PM 77.0 °F 45.0 °F 32% 29.96 in 10.0 mi WSW 11.5 mph 20.7 mph N/A   Clear
3:54 PM 75.9 °F 43.0 °F 31% 29.94 in 10.0 mi WSW 11.5 mph 21.9 mph N/A   Clear
4:54 PM 75.9 °F 42.1 °F 30% 29.94 in 10.0 mi West 11.5 mph - N/A   Clear
5:54 PM 75.0 °F 43.0 °F 32% 29.94 in 10.0 mi SW 9.2 mph - N/A   Clear
6:54 PM 72.0 °F 46.9 °F 41% 29.93 in 10.0 mi SSW 8.1 mph - N/A   Clear
7:54 PM 69.1 °F 45.0 °F 42% 29.92 in 10.0 mi SSW 6.9 mph - N/A   Clear
8:54 PM 69.1 °F 44.1 °F 40% 29.92 in 10.0 mi South 5.8 mph - N/A   Clear
9:54 PM 66.9 °F 43.0 °F 42% 29.93 in 10.0 mi South 5.8 mph - N/A   Clear
10:54 PM 64.9 °F 42.1 °F 43% 29.93 in 10.0 mi South 5.8 mph - N/A   Clear
11:54 PM 64.9 °F 41.0 °F 42% 29.93 in 10.0 mi Calm Calm - N/A   Clear